This demonstration page uses our WeatherBlox Daily Observations layout. Learn more.

40.92945, -100.16068

Hourly Observations for January 27, 2015

Temp ( °F °C ) Dew Point ( °F °C ) Humidity (%) Winds ( mph kmh ) Pressure ( in mb ) Visibility ( mi km ) Precip ( " mm )
12:15 am 00:15 Clear 31 -0.3 26 -3.3 80 80 NNW 3 6 30.18 1022 10 16.0934 N/A
12:35 am 00:35 Clear 31 -0.3 26 -3.4 80 80 Calm 30.18 1022 10 16.0934 N/A
12:55 am 00:55 Clear 30 -1 26 -3.6 83 83 Calm 30.18 1022 10 16.0934 N/A
1:15 am 01:15 Clear 30 -1.3 25 -3.8 83 83 W 5 7 30.18 1022 10 16.0934 N/A
1:35 am 01:35 Clear 29 -1.7 26 -3.5 88 88 W 6 9 30.18 1022 10 16.0934 N/A
1:55 am 01:55 Clear 29 -1.8 25 -3.7 87 87 Calm 30.18 1022 10 16.0934 N/A
2:15 am 02:15 Clear 29 -1.6 25 -3.7 86 86 W 3 6 30.18 1022 10 16.0934 N/A
2:35 am 02:35 Clear 29 -1.6 26 -3.4 88 88 WSW 3 6 30.18 1022 10 16.0934 N/A
2:55 am 02:55 Clear 29 -1.6 26 -3.4 88 88 W 5 7 30.18 1022 10 16.0934 N/A
3:15 am 03:15 Clear 29 -1.9 26 -3.3 90 90 W 7 11 30.18 1022 10 16.0934 N/A
3:35 am 03:35 Clear 29 -1.7 26 -3.2 90 90 WNW 7 11 30.18 1022 10 16.0934 N/A
3:55 am 03:55 Clear 29 -1.7 26 -3.3 89 89 WNW 8 13 30.18 1022 10 16.0934 N/A
4:15 am 04:15 Clear 31 -0.5 28 -2.4 87 87 NW 10 17 30.15 1021 10 16.0934 N/A
4:35 am 04:35 Clear 29 -1.6 26 -3.4 88 88 WNW 7 11 30.18 1022 10 16.0934 N/A
4:55 am 04:55 Clear 30 -1.1 27 -2.9 88 88 W 6 9 30.15 1021 10 16.0934 N/A
5:15 am 05:15 Clear 29 -1.7 26 -3.2 90 90 WNW 5 7 30.18 1022 10 16.0934 N/A
5:35 am 05:35 Clear 29 -1.8 26 -3.5 88 88 WNW 7 11 30.18 1022 10 16.0934 N/A
5:55 am 05:55 Clear 28 -2.3 25 -3.7 90 90 WNW 7 11 30.18 1022 10 16.0934 N/A
6:15 am 06:15 Clear 28 -2.4 25 -3.8 90 90 WNW 3 6 30.18 1022 10 16.0934 N/A
6:35 am 06:35 Clear 28 -2.3 25 -3.9 89 89 W 3 6 30.18 1022 10 16.0934 N/A
6:55 am 06:55 Clear 28 -2.4 25 -3.9 90 90 WSW 6 9 30.18 1022 10 16.0934 N/A
7:15 am 07:15 Clear 28 -2.5 25 -4 90 90 WSW 3 6 30.18 1022 10 16.0934 N/A
7:35 am 07:35 Clear 28 -2 26 -3.6 89 89 Calm 30.18 1022 10 16.0934 N/A
7:55 am 07:55 Sunny 29 -1.6 26 -3.2 89 89 WSW 5 7 30.18 1022 10 16.0934 N/A
8:15 am 08:15 Sunny 29 -1.6 26 -3.3 88 88 Calm 30.18 1022 10 16.0934 N/A
8:35 am 08:35 Sunny 30 -1 28 -2.5 90 90 W 5 7 30.15 1021 10 16.0934 N/A
8:55 am 08:55 Sunny 34 1 31 -0.5 90 90 W 5 7 30.12 1020 10 16.0934 N/A
9:15 am 09:15 Sunny 38 3.1 32 0.1 81 81 W 5 7 30.12 1020 10 16.0934 N/A
9:35 am 09:35 Sunny 39 4 32 0.1 76 76 W 5 7 30.09 1019 10 16.0934 N/A
9:55 am 09:55 Sunny 41 5.1 33 0.4 72 72 WSW 5 7 30.09 1019 10 16.0934 N/A
10:15 am 10:15 Sunny 43 6.2 33 0.6 68 68 Calm 30.09 1019 10 16.0934 N/A
10:35 am 10:35 Sunny 45 7.4 33 0.5 62 62 W 3 6 30.09 1019 10 16.0934 N/A
10:55 am 10:55 Sunny 47 8.5 33 0.6 58 58 WNW 3 6 30.06 1018 10 16.0934 N/A
11:15 am 11:15 Sunny 49 9.5 34 0.9 55 55 Calm 30.06 1018 10 16.0934 N/A
11:35 am 11:35 Sunny 52 11 34 1 50 50 Calm 30.03 1017 10 16.0934 N/A
11:55 am 11:55 Sunny 55 12.5 34 1.3 47 47 NW 3 6 30.03 1017 10 16.0934 N/A
12:15 pm 12:15 Sunny 57 13.9 34 1 42 42 W 3 6 29.97 1015 10 16.0934 N/A
12:35 pm 12:35 Sunny 59 15 33 0.4 37 37 WNW 5 7 29.97 1015 10 16.0934 N/A
12:55 pm 12:55 Sunny 61 16.2 33 0.6 35 35 WNW 6 9 29.97 1015 10 16.0934 N/A
1:15 pm 13:15 Sunny 63 17.2 32 0.2 32 32 WNW 5 7 29.91 1013 10 16.0934 N/A
1:35 pm 13:35 Sunny 65 18.2 32 0 29 29 W 3 6 29.91 1013 10 16.0934 N/A
1:55 pm 13:55 Sunny 67 19.2 32 0.1 28 28 WNW 3 6 29.91 1013 10 16.0934 N/A
2:15 pm 14:15 Sunny 68 20.2 32 0 26 26 W 5 7 29.88 1012 10 16.0934 N/A
2:35 pm 14:35 Sunny 70 20.9 32 0 25 25 Calm 29.85 1011 10 16.0934 N/A
2:55 pm 14:55 Sunny 70 21 31 -0.3 24 24 Calm 29.85 1011 10 16.0934 N/A
3:15 pm 15:15 Sunny 71 21.9 31 -0.4 23 23 Calm 29.85 1011 10 16.0934 N/A
3:35 pm 15:35 Sunny 72 22.3 32 0 23 23 Calm 29.85 1011 10 16.0934 N/A
3:55 pm 15:55 Sunny 72 22.1 32 0.2 23 23 Calm 29.85 1011 10 16.0934 N/A
4:15 pm 16:15 Sunny 72 22.4 32 0.2 23 23 S 7 11 29.85 1011 10 16.0934 N/A
4:35 pm 16:35 Sunny 72 22.1 32 0.1 23 23 SSW 6 9 29.83 1010 10 16.0934 N/A
4:55 pm 16:55 Sunny 70 21.1 33 0.5 25 25 S 5 7 29.83 1010 10 16.0934 N/A
5:15 pm 17:15 Sunny 67 19.3 33 0.3 28 28 SSE 5 7 29.83 1010 10 16.0934 N/A
5:35 pm 17:35 Sunny 65 18.3 31 -0.3 29 29 SE 5 7 29.85 1011 10 16.0934 N/A
5:55 pm 17:55 Clear 60 15.4 32 -0.1 35 35 ESE 3 6 29.88 1012 10 16.0934 N/A
6:15 pm 18:15 Clear 58 14.4 32 0 38 38 ESE 6 9 29.88 1012 10 16.0934 N/A
6:35 pm 18:35 Clear 56 13.3 33 0.5 42 42 SE 6 9 29.88 1012 10 16.0934 N/A
6:55 pm 18:55 Clear 54 12 33 0.4 45 45 SSE 6 9 29.91 1013 10 16.0934 N/A
7:15 pm 19:15 Clear 52 10.9 32 0.1 48 48 SSE 5 7 29.91 1013 10 16.0934 N/A
7:35 pm 19:35 Clear 50 10.2 32 0 49 49 SSE 6 9 29.91 1013 10 16.0934 N/A
7:55 pm 19:55 Clear 47 8.3 32 0 56 56 SE 3 6 29.94 1014 10 16.0934 N/A
8:15 pm 20:15 Clear 43 6.3 32 -0.2 63 63 SE 5 7 29.94 1014 10 16.0934 N/A
8:35 pm 20:35 Clear 38 3.4 30 -0.9 74 74 ESE 3 6 29.97 1015 10 16.0934 N/A
8:55 pm 20:55 Clear 38 3.1 30 -1.3 73 73 Calm 29.97 1015 10 16.0934 N/A
9:15 pm 21:15 Clear 36 2 29 -1.9 76 76 SSE 7 11 30 1016 10 16.0934 N/A
9:35 pm 21:35 Clear 37 3 30 -1.3 74 74 SSE 5 7 29.97 1015 10 16.0934 N/A
9:55 pm 21:55 Clear 39 3.9 30 -1 71 71 SE 5 7 29.97 1015 10 16.0934 N/A
10:15 pm 22:15 Clear 35 1.5 28 -2.1 77 77 E 3 6 30 1016 10 16.0934 N/A
10:35 pm 22:35 Clear 35 1.7 29 -1.4 80 80 E 3 6 30 1016 10 16.0934 N/A
10:55 pm 22:55 Clear 35 1.7 29 -1.5 80 80 E 3 6 30 1016 10 16.0934 N/A
11:15 pm 23:15 Clear 32 0.1 27 -2.8 81 81 NE 5 7 30 1016 10 16.0934 N/A
11:35 pm 23:35 Clear 33 0.4 28 -2.4 82 82 NE 3 6 30 1016 10 16.0934 N/A
11:55 pm 23:55 Clear 32 -0.1 27 -2.9 82 82 Calm 30 1016 10 16.0934 N/A

Powered by AerisWeather